STARLINK-32287 (60358 NORAD) Tracking and Keplerian Element Data

This shows tracking and keplerian element data for the satellite.

Feedback or suggestion? Click here.




ElementValue
Catalog60358
NameSTARLINK-32287
Epoch Orbit1201
Epoch Day286.73857959
Epoch Year2024
RAAN177.8154
Inclination53.1597
Eccentricity0.0001344
Argument of Perigee71.1901
Mean Anonmoly288.925
Mean Motion15.39652701
Decay Rate4.156E-05
L11 60358U 24138D 24286.73857959 .00004156 00000+0 11372-3 0 9997
L22 60358 53.1597 177.8154 0001344 71.1901 288.9250 15.39652701 12015



Live tracking and technical data element details for STARLINK-32287 (NORAD 60358). STARLINK-32287 can be tracked NOW for your location showing map with azimuth and elevation plus other details from your city location.







IsCatalogInMostPopularTable: catalog: 60358, numindb: 6
Update: records affected: 1



GetName: 60358 STARLINK-32287

Hit Count: updated at: Wed, 04 Dec 2024 18:33:26 GMT